SCP
1 1 1 1 1 1 1 2 2 2 2 2 1 1 1 1 1 2 2 3 3 3 2 2 2 1 1 1 1 1 1 1 1 1 1 1 1 1 1 1 1 0 0
1 1 1 1 1 1 1 1 1 1 2 1 1 1 1 1 1 2 2 2 3 2 2 2 2 2 1 1 1 1 1 1 1 1 1 1 1 1 1 1 1 1 1
1 1 1 1 1 1 1 1 1 1 1 1 1 1 1 1 1 1 2 2 2 2 2 2 2 2 1 1 1 1 1 1 1 1 1 1 1 1 1 1 1 1 1
1 1 1 1 1 1 1 1 1 1 1 1 1 1 1 1 1 1 1 2 2 2 2 2 2 2 2 2 1 1 1 1 1 1 1 1 1 1 1 1 1 1 1
1 1 1 1 1 1 1 1 1 1 1 1 1 1 1 1 1 1 1 1 2 2 2 2 2 2 2 2 2 2 2 1 1 1 1 1 1 1 1 1 1 1 1
0 0 0 0 0 0 0 0 1 1 1 1 1 1 1 1 1 1 1 2 2 2 2 2 2 2 2 2 2 2 2 2 1 1 1 1 1 1 1 1 1 1 1
0 0 0 0 0 0 0 0 0 0 1 1 1 1 1 1 1 1 2 2 2 2 2 2 2 3 2 2 2 1 2 2 2 2 1 1 1 1 1 1 1 1 1
0 0 0 0 0 0 0 0 0 0 0 0 0 0 0 0 1 1 1 2 2 2 2 2 2 2 2 2 2 1 1 1 2 2 2 2 2 1 1 1 1 1 1
1 0 0 0 0 0 0 0 0 0 0 0 0 0 0 0 0 0 1 1 2 2 2 2 2 2 2 3 2 2 1 1 1 1 2 2 2 1 1 1 1 1 1
1 1 1 0 0 0 0 0 0 0 0 0 0 0 0 0 0 0 0 1 1 2 2 2 2 2 2 2 2 2 1 1 1 1 1 1 1 1 1 1 1 1 1
1 1 1 1 1 0 0 0 0 0 0 0 0 0 0 0 0 0 0 0 1 1 2 2 2 2 2 2 2 1 1 1 1 1 1 1 1 1 1 1 1 1 1
2 2 1 1 1 1 0 0 0 0 0 0 0 0 0 0 0 0 0 0 0 1 1 2 2 2 2 2 1 1 1 0 0 1 1 1 1 1 1 1 1 1 1
2 2 2 2 2 1 1 0 0 0 0 0 0 0 0 0 0 0 0 0 0 1 1 1 2 2 2 1 1 0 0 0 0 0 0 0 0 1 1 1 1 1 1
3 3 3 2 2 1 1 1 1 0 0 0 0 0 0 0 0 0 0 0 0 0 1 1 1 2 2 1 1 0 0 0 0 0 0 0 0 0 0 0 0 0 0
3 3 3 2 2 2 1 1 1 0 0 0 0 0 0 0 0 0 0 0 0 0 0 1 1 1 1 1 0 0 0 0 0 0 0 0 0 0 0 0 0 0 0
2 3 3 2 2 2 1 1 1 1 0 0 0 0 0 0 0 0 0 0 0 0 0 0 1 1 1 0 0 0 0 0 0 0 0 0 0 0 0 0 0 0 0
1 2 2 2 2 2 1 1 1 1 0 0 0 0 0 0 0 0 0 0 0 0 0 0 0 0 0 0 0 0 0 0 0 0 0 0 0 0 0 0 0 0 0
0 1 1 1 1 1 1 1 1 1 1 0 0 0 0 0 0 0 0 0 0 0 0 0 0 0 0 0 0 0 0 0 0 0 0 0 0 0 0 0 0 0 0
0 0 0 1 1 1 1 1 1 1 1 0 0 0 0 0 0 0 0 0 0 0 0 0 0 0 0 0 0 0 0 0 0 0 0 0 0 0 0 0 0 0 0
0 0 0 0 0 1 1 1 1 1 1 1 0 0 0 0 0 0 0 0 0 0 0 0 0 0 0 0 0 0 0 0 0 0 0 0 0 0 0 0 0 0 0
0 0 0 0 0 0 1 1 1 1 1 1 1 0 0 0 0 0 0 0 0 0 0 0 0 0 0 0 0 0 0 0 0 0 0 0 0 0 0 0 0 0 0
0 0 0 0 0 0 0 0 0 0 1 1 1 0 0 0 0 0 0 0 0 0 0 0 0 0 0 0 0 0 0 0 0 0 0 0 0 0 0 0 0 0 0
0 0 0 0 0 0 0 0 0 0 1 1 1 0 0 0 0 0 0 0 0 0 0 0 0 0 0 0 0 0 0 0 0 0 0 0 0 0 0 0 0 0 0
0 0 0 0 0 0 0 0 0 0 0 0 0 0 0 0 0 0 0 0 0 0 0 0 0 0 0 0 0 0 0 0 0 0 0 0 0 0 0 -0 -0 0 0
0 0 0 0 0 0 0 0 0 0 0 0 0 0 0 0 0 0 0 0 0 0 0 0 0 0 0 0 0 0 0 0 0 0 0 0 0 0 0 -0 -0 -0 0
0 0 0 0 0 0 0 0 0 0 0 0 0 0 0 0 0 0 0 0 0 0 0 0 0 0 0 0 0 0 0 0 0 0 0 0 0 0 0 -0 -0 -0 0
Wind_Speed
2 2 2 2 4 3 3 3 3 4 4 5 5 6 6 7 7 6 4 15 17 17 17 18 17 17 17 17 17 17 17 17 18 18 19 19 19 19 19 18 18 17 16
1 1 3 3 3 4 3 3 5 4 4 4 6 7 7 7 6 5 4 8 16 18 19 18 18 18 19 19 18 18 18 18 18 18 19 20 20 20 20 19 19 18 17
2 2 3 4 3 3 3 4 5 5 6 6 7 7 7 7 8 7 6 5 8 18 20 19 19 19 20 20 20 19 18 18 18 18 19 19 20 20 20 19 19 19 18
3 2 3 3 2 2 3 4 5 5 5 5 5 6 6 6 8 8 9 8 6 8 14 21 20 20 21 21 21 20 18 18 18 18 18 19 20 20 20 20 20 19 18
1 1 1 2 2 3 3 5 3 2 4 4 5 6 7 7 7 10 11 11 10 9 8 14 22 22 22 22 21 20 19 18 18 18 18 19 20 20 20 20 20 20 19
1 2 2 3 4 3 4 4 5 4 4 5 8 8 6 7 7 9 11 10 10 11 11 10 12 16 22 21 21 21 20 18 18 18 18 19 20 20 20 20 20 20 20
1 1 3 3 3 3 4 5 5 6 6 5 5 6 7 8 9 8 9 8 10 10 9 9 8 8 10 20 20 20 20 19 18 17 17 18 18 19 19 20 20 20 20
1 2 2 2 4 4 5 5 5 4 5 5 5 6 6 6 6 9 8 9 10 8 8 9 6 7 7 7 12 19 19 17 17 16 16 16 17 17 18 20 20 20 20
2 1 1 3 3 4 4 4 4 6 5 5 4 4 4 5 6 6 6 5 6 6 6 5 5 6 7 5 7 13 16 15 15 15 14 14 15 16 17 19 20 20 20
3 3 3 3 3 4 5 5 4 4 5 5 5 4 6 6 6 6 7 6 6 5 6 5 4 3 4 3 4 7 9 9 9 9 10 10 11 13 15 18 20 20 20
5 5 5 4 3 4 5 5 4 5 4 6 5 5 6 5 6 6 8 7 6 4 3 1 1 1 2 2 3 6 7 6 4 3 3 4 6 8 11 15 18 19 19
4 6 6 4 4 4 5 4 5 6 5 6 5 5 6 5 5 5 6 6 6 4 2 2 1 2 3 5 7 9 9 8 6 5 4 3 2 1 2 5 9 12 14
3 3 3 3 3 4 5 5 5 6 6 7 6 6 5 6 6 6 6 6 5 3 1 2 2 2 4 5 7 11 10 10 9 8 8 8 8 8 8 7 5 3 2
4 2 1 2 4 5 6 5 5 6 6 5 7 7 5 6 6 6 5 5 5 4 1 1 2 3 4 5 7 9 8 11 11 11 10 11 11 11 11 12 12 11 10
7 6 4 4 5 5 6 6 5 6 6 6 6 6 5 5 5 5 5 5 5 4 3 2 2 2 4 5 7 7 7 11 12 12 12 12 12 12 13 13 13 13 12
7 8 7 7 6 6 6 6 6 6 6 6 5 6 6 5 4 4 5 5 5 5 3 1 2 3 4 6 8 8 10 14 14 13 13 13 13 13 13 13 14 14 14
7 7 7 8 8 8 7 7 7 7 6 6 5 5 5 6 4 4 4 4 5 5 4 2 2 4 6 8 8 8 8 8 9 14 15 14 14 14 14 14 14 14 14
7 8 8 8 9 9 8 7 8 7 6 6 5 5 5 4 4 3 3 4 3 4 5 7 4 4 6 8 9 9 8 8 8 13 16 16 15 15 15 15 14 14 14
8 9 9 9 9 9 9 8 8 7 6 5 4 4 4 3 3 2 2 2 1 3 5 7 6 4 5 6 8 8 9 7 9 11 14 15 15 16 15 15 15 14 13
9 9 9 9 9 10 10 10 9 7 6 4 3 2 2 1 1 1 1 0 2 5 6 7 7 5 5 6 6 7 6 5 6 8 9 11 14 17 16 15 15 14 13
11 9 9 8 8 9 10 9 8 8 6 4 3 2 2 4 3 2 2 2 4 5 6 7 7 6 5 5 5 5 6 5 5 7 8 7 7 7 8 11 13 13 12
10 10 9 9 9 10 10 11 9 7 5 4 4 4 6 5 7 7 8 6 5 6 7 6 6 7 6 5 4 6 6 6 5 5 6 6 6 6 5 5 7 10 11
9 9 9 8 8 8 10 11 11 8 6 5 5 6 6 7 7 7 7 8 7 7 7 7 8 7 6 5 6 6 6 6 4 6 6 7 7 7 5 6 7 9 9
7 7 8 9 8 9 9 9 10 9 7 6 7 7 7 8 8 7 7 7 6 6 6 6 7 6 5 4 5 6 6 6 5 5 8 7 7 6 6 4 6 7 8
7 8 9 9 9 7 7 8 9 8 7 7 7 8 9 9 11 10 8 9 9 7 10 13 11 11 11 9 6 4 4 5 5 4 4 5 6 6 4 4 5 6 6
7 9 10 9 9 7 6 7 9 7 7 6 7 8 11 11 13 11 8 9 9 8 9 9 8 8 7 7 7 4 2 3 5 4 3 4 6 5 4 4 5 5 4
Wind_Direction
215 288 314 318 306 295 272 252 280 288 286 288 279 267 259 245 246 237 210 186 191 198 202 205 210 216 221 223 223 222 221 221 219 217 217 217 218 218 217 217 216 214 213
161 273 277 272 273 277 293 298 291 289 283 276 277 279 279 275 269 261 243 200 202 207 208 209 213 217 221 222 222 221 220 220 219 218 218 218 218 218 218 218 217 215 214
188 225 254 256 253 258 264 266 269 264 264 263 260 262 265 263 264 266 259 237 216 216 212 211 213 215 218 220 221 220 219 218 218 217 217 217 217 218 218 218 218 216 215
190 214 253 266 295 282 264 257 248 253 259 264 266 261 257 255 254 254 253 245 235 235 218 216 216 216 218 219 221 220 218 217 217 217 215 215 216 217 218 218 218 217 216
218 231 277 291 285 273 278 288 295 292 290 286 279 262 247 245 245 249 245 242 235 228 226 212 214 216 218 220 221 221 219 218 217 217 216 215 216 216 217 218 218 217 216
16 33 322 330 342 319 305 304 315 305 285 274 278 280 268 253 241 239 241 242 238 233 228 224 209 217 219 219 220 220 220 219 218 217 217 217 216 215 215 216 218 218 217
20 18 303 324 310 291 308 317 311 305 298 285 279 277 266 256 246 235 231 234 236 235 229 223 209 200 207 219 222 221 221 221 220 220 219 219 218 217 215 215 216 217 218
158 280 334 331 310 317 302 280 278 280 287 293 294 295 289 280 266 256 231 222 226 229 229 229 214 211 205 192 211 219 223 224 225 224 224 222 221 219 217 216 216 216 217
158 234 291 284 297 294 289 313 308 291 291 294 287 287 296 293 314 300 298 267 233 222 222 217 217 215 218 198 182 203 215 222 227 230 231 228 225 222 220 219 218 217 217
191 203 224 245 263 280 293 292 302 322 300 291 289 274 266 280 292 301 307 305 288 250 228 212 215 200 205 195 144 148 187 204 218 229 237 238 235 229 225 223 223 220 219
197 202 207 215 242 262 270 278 291 282 280 282 288 292 290 287 269 268 284 294 304 308 296 242 178 121 139 142 125 119 134 150 164 187 227 243 243 237 231 227 227 226 223
214 205 196 194 220 249 270 279 274 273 268 271 274 277 280 279 278 269 269 278 282 282 304 359 49 75 81 85 94 104 111 112 111 109 104 93 90 127 218 225 228 230 230
257 218 197 179 226 257 266 266 267 268 270 271 270 268 268 270 273 272 271 276 279 287 319 36 42 81 96 98 102 110 107 104 98 92 88 85 81 78 76 77 82 97 141
303 322 253 223 235 248 262 267 275 273 270 272 278 276 270 268 264 266 264 268 275 271 238 140 58 73 96 105 115 113 107 104 100 95 88 85 83 80 79 78 77 75 73
317 320 308 269 251 249 252 260 263 269 273 273 275 278 275 269 262 260 255 243 238 246 232 171 124 89 109 107 123 113 109 105 100 95 91 88 86 83 80 78 76 74 72
324 315 304 293 278 264 254 252 258 263 270 272 269 269 273 275 272 268 257 246 229 223 216 153 139 136 119 113 112 107 106 104 96 94 89 87 84 83 80 79 77 74 72
318 313 303 290 280 273 263 255 256 262 267 275 282 286 287 284 277 270 262 250 234 210 192 144 120 121 113 114 110 110 111 100 98 96 93 89 84 81 78 76 74 73 72
305 305 305 297 283 274 267 263 261 266 269 275 281 289 292 296 292 283 270 253 232 196 164 147 133 126 115 118 117 114 110 103 101 100 98 94 89 84 79 76 72 70 69
291 294 297 298 294 284 274 268 262 261 262 268 276 285 294 306 305 300 286 262 194 151 140 137 135 125 116 121 116 110 110 112 110 110 100 95 92 88 83 79 74 70 68
278 279 281 287 291 292 281 269 264 259 255 257 261 267 285 333 331 317 311 114 130 129 131 133 132 127 122 123 122 126 125 131 131 123 103 104 99 89 83 80 78 74 70
269 271 274 278 286 287 279 277 267 259 246 235 223 192 108 91 74 75 114 121 131 132 133 133 134 131 133 141 141 145 141 143 131 129 129 129 118 101 88 80 78 77 75
257 259 263 269 274 282 298 304 285 267 249 226 200 158 139 125 105 91 87 88 111 134 139 139 138 142 146 149 150 155 148 147 146 159 146 139 120 102 93 88 91 88 82
261 259 259 262 266 274 282 281 273 263 240 216 193 174 170 145 141 123 107 98 91 104 125 132 138 142 144 158 160 159 161 157 141 156 138 123 113 103 104 113 120 109 99
262 267 267 264 260 267 279 273 263 256 242 214 189 177 159 155 154 146 135 114 93 84 112 117 120 123 123 129 139 140 133 121 112 127 133 125 128 124 123 129 151 134 118
262 264 268 263 257 255 257 255 246 251 237 211 185 169 161 159 155 153 137 120 108 95 90 103 108 109 104 96 100 119 131 130 130 129 127 123 135 133 138 145 165 163 138
263 262 263 261 259 254 247 234 225 243 237 206 175 164 165 156 158 157 144 135 128 125 122 115 109 113 113 101 86 81 100 151 140 128 122 121 146 147 147 158 160 170 174